#timestamp,LO_Frequency,Hit,StdDev 
1504141215.7,286046998.2,N,1.4
1504141235.6,286047000.7,N,1.4
1504141255.4,286046998.1,N,1.4
1504141275.2,286046998.3,N,1.4
1504141295.1,286047001.1,N,1.4
1504141296.0,286047001.1,N,1.4
1504141315.8,286046998.6,N,1.4
1504141335.6,286047000.8,N,1.4
1504141355.5,286046998.5,N,1.4
1504141375.3,286047001.2,N,1.4
1504141395.2,286047001.2,N,1.4
1504141415.9,286047000.7,N,1.3
1504141435.7,286046998.1,N,1.4
1504141455.6,286047000.6,N,1.3
1504141475.4,286047000.9,N,1.3
1504141495.3,286046999.9,N,1.3
1504141515.1,286047000.2,N,1.3
1504141516.0,286047000.2,N,1.2
1504141535.8,286047000.2,N,1.2
1504141555.7,286047002.4,N,1.3
1504141575.5,286047002.2,N,1.3
1504141595.3,286047002.8,N,1.4
1504141615.2,286046999.7,N,1.4
1504141635.0,286047001.2,N,1.4
1504141635.9,286047001.2,N,1.4
1504141655.8,286046999.0,N,1.4
1504141675.6,286046998.2,N,1.4
1504141695.5,286046998.5,N,1.4
1504141715.3,286046998.9,N,1.4
1504141735.1,286046999.0,N,1.4
1504141755.9,286046998.4,N,1.4
1504141775.7,286046999.0,N,1.4
1504141795.6,286046998.8,N,1.3
1504141815.4,286047000.8,N,1.3
1504141835.2,286047000.7,N,1.3
1504141855.1,286047001.1,N,1.3
1504141856.0,286047001.1,N,1.3
1504141875.8,286046998.1,N,1.3
1504141895.7,286046998.5,N,1.3
1504141915.5,286046998.9,N,1.3
1504141935.3,286046998.1,N,1.3
1504141955.2,286047001.2,N,1.4
1504141975.0,286047001.2,N,1.3
1504141975.9,286047001.2,N,1.3
1504141995.8,286046998.1,N,1.4
1504142015.6,286047001.1,N,1.4
1504142035.4,286046998.1,N,1.4
1504142055.3,286047000.9,N,1.4
1504142075.1,286047001.2,N,1.5
1504142095.8,286047000.6,N,1.4
1504142115.7,286046999.9,N,1.3
1504142135.5,286047000.4,N,1.2
1504142155.4,286047000.3,N,1.2
1504142175.2,286047001.2,N,1.2
1504142195.0,286047000.8,N,1.2
1504142195.9,286047000.8,N,1.2
1504142215.8,286047001.2,N,1.2
1504142235.6,286047000.7,N,1.2
1504142255.5,286046998.5,N,1.2
1504142275.3,286047000.7,N,1.2
1504142295.1,286046998.1,N,1.2
1504142315.9,286047000.7,N,1.2
1504142335.7,286047000.3,N,1.2
1504142355.5,286047000.1,N,1.2
1504142375.4,286047000.5,N,1.2
1504142395.2,286047000.0,N,1.1
1504142415.1,286047000.6,N,1.1
1504142416.0,286047000.6,N,1.1
1504142435.8,286047000.3,N,1.0
1504142455.6,286047000.7,N,1.0
1504142475.5,286047000.9,N,0.9
1504142495.3,286047000.6,N,0.9
1504142515.2,286047000.6,N,0.9
1504142535.9,286047000.6,N,0.9
1504142555.7,286047000.0,N,0.8
1504142575.6,286046998.5,N,0.8
1504142595.4,286046999.9,N,0.7
1504142615.2,286047000.4,N,0.7
1504142635.1,286047000.4,N,0.7
1504142636.0,286047000.4,N,0.7
1504142655.8,286047001.1,N,0.7
1504142675.7,286047000.3,N,0.7
1504142695.5,286047002.4,Y,0.0
1504142715.3,286046999.9,P,0.2
1504142735.2,286047000.2,N,0.2
1504142755.0,286047000.7,P,0.3
1504142755.9,286047000.7,N,0.3
1504142775.8,286047000.5,N,0.3
1504142795.6,286047000.6,N,0.3
1504142815.4,286047000.5,N,0.3
1504142835.3,286047000.1,N,0.3
1504142855.1,286047000.2,N,0.3
1504142875.9,286047002.8,Y,0.0
1504142895.7,286047000.5,P,0.1
1504142915.5,286047000.0,N,0.2
1504142935.4,286047000.6,N,0.2
1504142955.2,286047000.1,N,0.2
1504142975.0,286047000.4,N,0.2
1504142975.9,286047000.4,N,0.2
1504142995.8,286046998.1,Y,0.0
1504143015.6,286047001.2,P,0.4
1504143035.5,286047000.0,N,0.5
1504143055.3,286046999.3,N,0.7
1504143075.1,286046998.2,N,1.0
1504143095.9,286047000.9,N,1.0
1504143115.7,286046998.3,N,1.1
1504143135.6,286046998.1,N,1.2
1504143155.4,286047001.1,N,1.2
1504143175.2,286047001.1,N,1.2
1504143195.1,286046998.1,N,1.3
1504143196.0,286046998.1,N,1.3
1504143215.8,286047000.6,N,1.3
1504143235.7,286047002.7,N,1.5
1504143255.5,286047000.0,N,1.4
1504143275.3,286047000.5,N,1.4
1504143295.2,286047000.7,N,1.3
1504143345.1,286047000.5,E,nan
1504143355.9,286046998.2,N,0.0
1504143375.7,286047000.4,P,1.1
1504143395.6,286046998.4,N,1.0
1504143415.4,286047000.8,N,1.2
1504143435.2,286046998.4,N,1.1
1504143455.1,286047000.8,N,1.2
1504143456.0,286047000.8,N,1.2
1504143475.8,286047001.0,N,1.2
1504143495.6,286047001.1,N,1.2
1504143515.5,286046998.9,N,1.2
1504143535.3,286046999.3,N,1.1
1504143555.2,286046999.1,N,1.1
1504143575.9,286046998.6,N,1.1
1504143595.7,286046999.0,N,1.1
1504143615.6,286046998.9,N,1.1
1504143635.4,286046998.5,N,1.1
1504143655.3,286046998.7,N,1.0
1504143675.1,286046998.9,N,1.0
1504143695.8,286046998.6,N,1.0
1504143715.7,286046998.1,N,1.0
1504143735.5,286046999.1,N,1.0
1504143755.4,286046999.5,N,1.0
1504143775.2,286047001.0,N,1.0
1504143795.0,286046998.3,N,1.0
1504143795.9,286046998.3,N,1.0
1504143815.8,286046999.1,N,1.0
1504143835.6,286046998.3,N,1.0
1504143855.4,286046998.8,N,1.0
1504143875.3,286046998.3,N,1.0
1504143895.1,286047011.9,Y,0.0
1504143915.9,286047001.2,P,1.0
1504143935.7,286047001.2,N,0.9
1504143955.5,286047000.8,N,0.8
1504143975.4,286047000.9,N,0.7
1504143995.2,286046999.9,N,0.7
1504144015.1,286047001.2,N,0.7
1504144016.0,286047001.2,N,0.7
1504144035.8,286047001.2,N,0.7
1504144055.6,286047000.8,N,0.6
1504144075.5,286047000.2,N,0.6
1504144095.3,286047000.2,N,0.6
1504144115.1,286047000.1,N,0.6
1504144135.9,286047000.1,N,0.6
1504144155.7,286046999.8,N,0.6
1504144175.6,286047000.6,N,0.6
1504144195.4,286047000.5,N,0.6
1504144215.2,286047002.4,Y,0.0
1504144235.1,286047000.0,P,0.3
1504144236.0,286047000.0,N,0.3
1504144255.8,286047002.8,P,1.2
1504144275.7,286046999.7,N,1.1
1504144295.5,286047000.7,N,1.0
1504144315.3,286047000.7,N,1.0
1504144335.2,286047002.2,N,1.0
1504144355.0,286047000.8,N,1.0
1504144355.9,286047000.8,N,0.9
1504144375.8,286047000.4,N,0.9
1504144395.6,286047000.8,N,0.9
1504144415.5,286047000.6,N,0.8
1504144435.3,286047000.5,N,0.8
1504144455.1,286047000.4,N,0.8
1504144475.9,286047000.2,N,0.8
1504144495.7,286047002.8,Y,0.0
1504144515.5,286047000.9,P,0.1
1504144535.4,286047002.4,P,0.8
1504144555.2,286047002.2,N,0.8
1504144575.1,286047000.5,N,0.8
1504144576.0,286047000.5,N,0.8
1504144595.8,286046998.1,N,1.3
1504144615.6,286047000.7,N,1.2
1504144635.5,286047000.6,N,1.2
1504144655.3,286046998.2,N,1.3
1504144675.2,286047001.2,N,1.3
1504144695.0,286046998.3,N,1.4
1504144695.9,286046998.3,N,1.4
1504144715.7,286046998.8,N,1.4
1504144735.6,286047000.1,N,1.4
1504144755.4,286047000.6,N,1.3
1504144775.3,286047000.6,N,1.3
1504144795.1,286047000.5,N,1.3
1504144796.0,286047000.5,N,1.2
